• In Hungary
  • List of Countries
  • For 7 days
  • Water Temperature
  • Satellite Maps
  • Weather Map
  • News
  • Weather Widgets
  • user-avatar
    Login

    Hourly Weather Managua

    Today, 24 September, Monday

    Time Temperature Precipitation Wind Pressure Humidity
    00:00 +27°C° 0 mm 3 mps 752 mmHg 82%
    01:00 +27°C° 0 mm 3 mps 751 mmHg 82%
    02:00 +27°C° 0 mm 3 mps 751 mmHg 83%
    03:00 +26°C° 0 mm 3 mps 751 mmHg 84%
    04:00 +26°C° 0 mm 3 mps 751 mmHg 83%
    05:00 +26°C° 0 mm 3 mps 751 mmHg 83%
    06:00 +26°C° 0 mm 3 mps 752 mmHg 82%
    07:00 +28°C° 0 mm 3 mps 752 mmHg 73%
    08:00 +30°C° 0 mm 4 mps 752 mmHg 64%
    09:00 +33°C° 0 mm 4 mps 753 mmHg 55%
    10:00 +35°C° 0 mm 4 mps 752 mmHg 52%
    11:00 +36°C° 0 mm 5 mps 752 mmHg 49%
    12:00 +37°C° 0 mm 5 mps 751 mmHg 45%
    13:00 +37°C° 0.1 mm 5 mps 751 mmHg 47%
    14:00 +36°C° 0.1 mm 5 mps 750 mmHg 49%
    15:00 +36°C° 0.1 mm 5 mps 750 mmHg 51%
    16:00 +34°C° 0.3 mm 5 mps 750 mmHg 56%
    17:00 +33°C° 0.3 mm 4 mps 750 mmHg 62%
    18:00 +30°C° 0.3 mm 4 mps 751 mmHg 67%
    19:00 +30°C° 0 mm 4 mps 751 mmHg 70%
    20:00 +29°C° 0 mm 3 mps 752 mmHg 72%
    21:00 +28°C° 0 mm 3 mps 753 mmHg 75%
    22:00 +28°C° 0 mm 3 mps 753 mmHg 76%
    23:00 +28°C° 0 mm 3 mps 753 mmHg 77%

    Tomorrow, 25 September, Tuesday

    Time Temperature Precipitation Wind Pressure Humidity
    00:00 +28°C° 0 mm 3 mps 752 mmHg 77%
    01:00 +28°C° 0 mm 3 mps 752 mmHg 78%
    02:00 +27°C° 0 mm 3 mps 752 mmHg 79%
    03:00 +27°C° 0 mm 3 mps 751 mmHg 80%
    04:00 +27°C° 0 mm 3 mps 751 mmHg 79%
    05:00 +27°C° 0 mm 3 mps 752 mmHg 79%
    06:00 +27°C° 0 mm 3 mps 752 mmHg 78%
    07:00 +28°C° 0 mm 3 mps 752 mmHg 73%
    08:00 +30°C° 0 mm 3 mps 753 mmHg 67%
    09:00 +32°C° 0 mm 4 mps 753 mmHg 62%
    10:00 +32°C° 0 mm 4 mps 753 mmHg 60%
    11:00 +33°C° 0 mm 4 mps 753 mmHg 59%
    12:00 +33°C° 0 mm 4 mps 752 mmHg 57%
    13:00 +34°C° 0.5 mm 4 mps 752 mmHg 59%
    14:00 +34°C° 0.5 mm 4 mps 751 mmHg 61%
    15:00 +34°C° 0.5 mm 4 mps 750 mmHg 63%
    16:00 +32°C° 0.5 mm 4 mps 750 mmHg 67%
    17:00 +30°C° 0.5 mm 3 mps 751 mmHg 72%
    18:00 +29°C° 0.5 mm 3 mps 751 mmHg 77%
    19:00 +28°C° 0.1 mm 3 mps 752 mmHg 79%
    20:00 +28°C° 0.1 mm 3 mps 752 mmHg 81%
    21:00 +27°C° 0.1 mm 3 mps 753 mmHg 83%
    22:00 +27°C° 0.1 mm 3 mps 753 mmHg 84%
    23:00 +27°C° 0.1 mm 3 mps 753 mmHg 85%

    Day after tomorrow, 26 September, Wednesday

    Time Temperature Precipitation Wind Pressure Humidity
    00:00 +27°C° 0.1 mm 2 mps 752 mmHg 85%
    01:00 +27°C° 0 mm 2 mps 752 mmHg 86%
    02:00 +27°C° 0 mm 2 mps 751 mmHg 86%
    03:00 +26°C° 0 mm 2 mps 751 mmHg 86%
    04:00 +26°C° 0.1 mm 2 mps 751 mmHg 86%
    05:00 +26°C° 0.1 mm 2 mps 751 mmHg 86%
    06:00 +27°C° 0.1 mm 2 mps 752 mmHg 86%
    07:00 +28°C° 0.1 mm 3 mps 752 mmHg 79%
    08:00 +30°C° 0.1 mm 3 mps 753 mmHg 73%
    09:00 +32°C° 0.1 mm 4 mps 753 mmHg 66%
    10:00 +33°C° 0 mm 4 mps 753 mmHg 62%
    11:00 +34°C° 0 mm 4 mps 753 mmHg 58%
    12:00 +35°C° 0 mm 5 mps 752 mmHg 54%
    13:00 +35°C° 0 mm 5 mps 751 mmHg 54%
    14:00 +35°C° 0 mm 5 mps 751 mmHg 53%
    15:00 +35°C° 0 mm 5 mps 750 mmHg 53%
    16:00 +34°C° 0.1 mm 4 mps 750 mmHg 58%
    17:00 +31°C° 0.1 mm 3 mps 751 mmHg 64%
    18:00 +29°C° 0.1 mm 3 mps 751 mmHg 70%
    19:00 +29°C° 0 mm 3 mps 752 mmHg 72%
    20:00 +28°C° 0 mm 2 mps 752 mmHg 74%
    21:00 +28°C° 0 mm 2 mps 753 mmHg 76%
    22:00 +28°C° 0 mm 2 mps 753 mmHg 78%
    23:00 +27°C° 0 mm 2 mps 752 mmHg 80%

    27 September, Thursday

    Time Temperature Precipitation Wind Pressure Humidity
    00:00 +27°C° 0 mm 2 mps 752 mmHg 81%
    01:00 +27°C° 0 mm 2 mps 752 mmHg 82%
    02:00 +27°C° 0 mm 2 mps 751 mmHg 83%
    03:00 +26°C° 0 mm 2 mps 751 mmHg 84%
    04:00 +26°C° 0 mm 2 mps 751 mmHg 83%
    05:00 +26°C° 0 mm 2 mps 751 mmHg 83%
    06:00 +27°C° 0 mm 2 mps 752 mmHg 82%
    07:00 +28°C° 0.1 mm 3 mps 752 mmHg 76%
    08:00 +30°C° 0.1 mm 3 mps 753 mmHg 69%
    09:00 +33°C° 0.1 mm 4 mps 753 mmHg 62%
    10:00 +34°C° 0.2 mm 4 mps 752 mmHg 59%
    11:00 +35°C° 0.2 mm 4 mps 752 mmHg 56%
    12:00 +36°C° 0.2 mm 4 mps 751 mmHg 53%
    13:00 +36°C° 0.3 mm 5 mps 751 mmHg 54%
    14:00 +35°C° 0.3 mm 5 mps 750 mmHg 55%
    15:00 +35°C° 0.3 mm 5 mps 749 mmHg 56%
    16:00 +33°C° 0.3 mm 4 mps 750 mmHg 61%
    17:00 +32°C° 0.3 mm 4 mps 750 mmHg 67%
    18:00 +29°C° 0.3 mm 3 mps 751 mmHg 73%
    19:00 +29°C° 0 mm 3 mps 752 mmHg 74%
    20:00 +29°C° 0 mm 3 mps 752 mmHg 75%
    21:00 +28°C° 0 mm 3 mps 753 mmHg 76%
    22:00 +28°C° 0 mm 3 mps 753 mmHg 77%
    23:00 +28°C° 0 mm 3 mps 752 mmHg 79%

    28 September, Friday

    Time Temperature Precipitation Wind Pressure Humidity
    00:00 +27°C° 0 mm 3 mps 752 mmHg 80%
    01:00 +27°C° 0 mm 3 mps 752 mmHg 81%
    02:00 +27°C° 0 mm 3 mps 751 mmHg 81%
    03:00 +26°C° 0 mm 3 mps 751 mmHg 82%
    04:00 +27°C° 0 mm 2 mps 751 mmHg 81%
    05:00 +27°C° 0 mm 2 mps 752 mmHg 81%
    06:00 +27°C° 0 mm 2 mps 752 mmHg 80%
    07:00 +28°C° 0 mm 3 mps 753 mmHg 73%
    08:00 +30°C° 0 mm 3 mps 753 mmHg 65%
    09:00 +33°C° 0 mm 4 mps 753 mmHg 58%
    10:00 +34°C° 0.1 mm 4 mps 753 mmHg 55%
    11:00 +35°C° 0.1 mm 4 mps 752 mmHg 53%
    12:00 +36°C° 0.1 mm 4 mps 751 mmHg 50%
    13:00 +35°C° 0.6 mm 4 mps 751 mmHg 55%
    14:00 +34°C° 0.6 mm 4 mps 750 mmHg 59%
    15:00 +33°C° 0.6 mm 4 mps 750 mmHg 64%
    16:00 +32°C° 0.3 mm 4 mps 750 mmHg 69%
    17:00 +30°C° 0.3 mm 3 mps 751 mmHg 74%
    18:00 +28°C° 0.3 mm 3 mps 751 mmHg 79%
    19:00 +28°C° 0.1 mm 3 mps 752 mmHg 81%
    20:00 +28°C° 0.1 mm 3 mps 752 mmHg 82%
    21:00 +27°C° 0.1 mm 3 mps 753 mmHg 84%
    22:00 +27°C° 0 mm 3 mps 753 mmHg 84%
    23:00 +27°C° 0 mm 3 mps 752 mmHg 84%

    29 September, Saturday

    Time Temperature Precipitation Wind Pressure Humidity
    00:00 +27°C° 0 mm 3 mps 752 mmHg 83%
    01:00 +27°C° 0 mm 3 mps 752 mmHg 84%
    02:00 +27°C° 0 mm 3 mps 751 mmHg 84%
    03:00 +26°C° 0 mm 3 mps 751 mmHg 84%
    04:00 +27°C° 0 mm 3 mps 751 mmHg 84%
    05:00 +27°C° 0 mm 3 mps 752 mmHg 84%
    06:00 +27°C° 0 mm 3 mps 752 mmHg 83%
    07:00 +28°C° 0 mm 4 mps 753 mmHg 77%
    08:00 +29°C° 0 mm 4 mps 753 mmHg 71%
    09:00 +32°C° 0 mm 5 mps 753 mmHg 65%
    10:00 +32°C° 0.2 mm 5 mps 753 mmHg 64%
    11:00 +32°C° 0.2 mm 5 mps 752 mmHg 64%
    12:00 +32°C° 0.2 mm 5 mps 752 mmHg 64%
    13:00 +32°C° 0.3 mm 5 mps 751 mmHg 65%
    14:00 +32°C° 0.3 mm 5 mps 751 mmHg 66%
    15:00 +32°C° 0.3 mm 5 mps 750 mmHg 68%
    16:00 +30°C° 0.5 mm 4 mps 751 mmHg 73%
    17:00 +29°C° 0.5 mm 4 mps 751 mmHg 79%
    18:00 +27°C° 0.5 mm 4 mps 752 mmHg 85%
    19:00 +27°C° 0.3 mm 3 mps 752 mmHg 87%
    20:00 +27°C° 0.3 mm 3 mps 753 mmHg 88%
    21:00 +27°C° 0.3 mm 3 mps 753 mmHg 90%
    22:00 +26°C° 0 mm 3 mps 753 mmHg 90%
    23:00 +26°C° 0 mm 3 mps 753 mmHg 90%
    Show more